Location: Blue Mountain Vista Observatory
(40.6992°N, 75.9422°W)
Time: 07:28:36
(UTC-04:00)

Daily predictions for brighter satellites

Satellite Brightness Start Highest point End
(mag) Time Altitude Azimuth Time Altitude Azimuth Time Altitude Azimuth
Cosmos 2237 Rocket 3.3 20:09:32 10° SSE 20:13:42 22° E 20:17:53 10° NE
Cosmos 1892 3.5 20:10:54 10° N 20:14:29 34° ENE 20:18:01 10° SE
BREEZE-M DEB (TANK) 3.6 20:08:08 10° WNW 20:14:59 69° SSW 20:18:24 10° SE
YAOGAN 6 3.4 20:15:49 10° SE 20:19:03 32° ENE 20:22:21 10° N
EO 1 Del DPAF 4.3 20:16:50 10° N 20:20:33 51° WNW 20:24:15 10° SSW
Nadezhda 3 Rocket 4.2 20:15:20 10° N 20:21:32 55° E 20:27:44 10° SSE
Cosmos 2278 Rocket 3.3 20:18:09 10° N 20:22:58 28° NE 20:27:46 10° ESE
Genesis I 4.4 20:22:50 10° NNW 20:26:30 31° NE 20:30:04 10° ESE
Cosmos 1633 Rocket 3.4 20:22:33 10° N 20:26:45 45° E 20:30:55 10° SSE
Cosmos 2221 4.3 20:29:51 10° SW 20:33:47 36° WNW 20:37:44 10° N
NOSS 2-1 (C) 4.0 20:33:19 10° SW 20:36:52 56° NW 20:40:46 10° NNE
Cosmos 1515 Rocket 4.4 20:33:46 10° SSE 20:37:40 31° E 20:41:36 10° NNE
NOSS 2-1 (D) 4.1 20:34:18 10° SW 20:37:50 53° NW 20:41:45 10° NNE
BREEZE-M DEB (TANK) 3.3 20:33:39 10° NW 20:38:35 45° NNE 20:40:37 14° E
Cosmos 1340 3.0 20:35:10 10° SSW 20:38:56 70° W 20:42:44 10° N
Thor Agena Rocket 3.5 20:36:49 10° NNE 20:42:05 80° ESE 20:47:21 10° SSW
Cosmos 2228 Rocket 3.7 20:38:26 10° SSE 20:42:23 34° E 20:46:22 10° NNE
SL-24 R/B - RUBIN 2 3.9 20:38:49 10° NW 20:43:07 64° WSW 20:47:28 10° SSE
Lacrosse 5 4.4 20:42:16 10° NNW 20:44:19 12° N 20:46:22 10° NNE
ATLAS 2AS CENTAUR R/B 3.1 20:37:50 10° NNW 20:45:45 67° NE 20:52:15 14° SE
OAO 2 Rocket 4.3 20:46:27 10° W 20:51:10 35° SSW 20:54:42 16° SE
Cosmos 1825 3.2 20:49:54 10° NNE 20:53:12 27° ENE 20:54:53 20° ESE
Spot 2 Rocket 3.6 20:49:09 10° SSE 20:54:08 58° ENE 20:59:08 10° N
Cosmos 1328 Rocket 3.5 20:52:01 10° S 20:56:24 74° E 21:00:50 10° NNE
Cosmos 2154 Rocket 4.3 20:51:44 10° SSW 20:57:58 72° W 21:04:13 10° N
ATLAS CENTAUR R/B 1.1 20:55:09 10° SSW 20:58:47 86° WNW 21:02:37 10° NNE
SL-8 R/B 3.6 20:54:27 10° SW 20:59:11 66° SE 21:03:57 10° ENE
SL-16 R/B 3.3 21:01:33 18° SE 21:03:49 23° E 21:08:09 10° NE
Resurs 01 Rocket 1.7 21:02:31 10° S 21:06:57 79° WSW 21:11:25 10° NNW
ARGOS 3.9 21:06:46 21° ESE 21:09:33 34° ENE 21:14:20 10° N
Cosmos 1470 Rocket 3.5 21:05:30 10° N 21:09:54 72° E 21:13:19 17° SSE
Meteor 2-3 Rocket 3.9 21:08:13 10° NNW 21:13:48 77° W 21:19:26 10° S
Cosmos 1939 Rocket 3.8 21:13:50 10° S 21:17:33 46° W 21:21:20 10° NNW
Cosmos 2341 Rocket 4.3 21:15:00 10° SSW 21:21:19 70° W 21:27:40 10° N
Cosmos 1869 3.4 21:19:48 26° SSE 21:21:49 53° E 21:25:45 10° NNE
NOSS 0 Rocket 4.0 21:17:02 10° SSW 21:23:12 81° WNW 21:29:27 10° NNE
Meteor 2-10 Rocket 4.0 21:20:50 18° SSE 21:24:48 48° E 21:30:22 10° NNE
Cosmos 2218 Rocket 4.0 21:19:47 10° S 21:26:04 71° E 21:32:27 10° NNE
USA 267 3.9 21:23:40 10° ENE 21:29:17 30° SE 21:34:51 10° S
Cosmos 1980 3.8 21:24:13 10° SSW 21:29:53 79° WNW 21:35:37 10° NNE
ERS-1 Rocket 3.7 21:30:08 30° ESE 21:31:32 36° ENE 21:36:07 10° N
Cosmos 407 Rocket 4.0 21:27:57 10° N 21:32:49 41° ENE 21:34:17 33° ESE
Cosmos 2297 4.3 21:30:12 10° N 21:35:33 40° ENE 21:37:25 31° E
Cosmos 1408 2.8 21:33:02 10° NNW 21:36:41 68° W 21:38:11 33° S
Cosmos 2366 rocket 3.9 21:31:23 10° S 21:37:34 78° E 21:43:52 10° N
H-2A R/B 2.4 21:36:33 36° ESE 21:38:00 46° ENE 21:42:44 10° N
Cosmos 1933 Rocket 3.8 21:34:09 10° NNW 21:38:31 66° W 21:41:04 23° S
Cosmos 2333 Rocket 3.5 21:35:35 10° SW 21:40:53 41° WNW 21:46:14 10° N
Cosmos 2369 Rocket 4.4 21:39:50 10° NNE 21:41:30 11° NE 21:43:10 10° ENE
Cosmos 1151 Rocket 3.8 21:37:31 10° SSW 21:41:40 51° W 21:45:51 10° N
Cosmos 1371 Rocket 3.9 21:36:32 10° SSW 21:41:51 85° ESE 21:47:14 10° NNE
Cosmos 1441 Rocket 4.3 21:45:32 30° NE 21:45:32 30° NE 21:47:51 10° NNE
SL-8 Rocket 4.3 21:40:27 10° SSW 21:46:43 68° W 21:53:00 10° N
Helios 1B rocket 4.4 21:47:34 10° NE 21:48:47 16° NE 21:48:47 16° NE
Cosmos 1707 Rocket 4.4 21:52:59 34° ENE 21:52:59 34° ENE 21:56:03 10° NNE
MetOp-A 4.0 21:51:20 39° SSE 21:53:24 84° ENE 21:58:46 10° NNW
Cosmos 1339 Rocket 4.4 21:48:38 10° N 21:54:45 88° E 21:57:44 33° S
Cosmos 2219 Rocket 4.3 21:50:50 10° WSW 21:55:37 28° NW 22:00:26 10° N
CZ-4C R/B 4.3 21:59:36 12° ENE 21:59:36 12° ENE 22:00:04 10° ENE
Cosmos 2237 Rocket 3.0 21:51:53 10° SW 21:57:20 51° WNW 22:02:50 10° NNE
Cosmos 1869 Rocket 3.5 21:56:36 10° N 22:00:54 64° ENE 22:00:54 64° ENE
Cosmos 2056 Rocket 3.6 21:57:55 10° SSW 22:03:21 79° WNW 22:08:47 10° NNE
Cosmos 1452 Rocket 4.3 22:05:38 34° ENE 22:05:38 34° ENE 22:09:13 10° NE
Cosmos 2278 Rocket 3.1 22:01:51 10° NW 22:07:13 44° WSW 22:09:50 27° SSW
Helios 1A 3.3 22:08:42 54° NE 22:08:42 54° NE 22:12:22 10° N
Terra 3.3 22:09:24 24° NE 22:09:24 24° NE 22:12:40 10° NNE
ATLAS 5 CENTAUR R/B 4.3 22:06:13 10° N 22:10:08 18° NE 22:12:37 15° ENE
Cosmos 2098 Rocket 3.9 22:07:13 20° SSW 22:10:14 48° W 22:14:00 10° N
Cosmos 1862 3.5 22:06:12 10° N 22:09:45 65° NNE 22:09:45 65° NNE
Cosmos 405 Rocket 3.4 22:15:04 48° N 22:15:04 48° N 22:17:59 10° N
Cosmos 405 4.1 22:14:44 10° NNW 22:17:29 43° WNW 22:17:29 43° WNW
Cosmos 1190 Rocket 4.2 22:18:58 10° NNW 22:24:13 65° WSW 22:24:56 58° SSW
Cosmos 1140 Rocket 3.5 22:22:10 10° NNW 22:27:07 66° NE 22:27:07 66° NE
ATLAS 2A CENTAUR R/B 4.3 22:13:48 10° SW 22:27:20 32° S 22:27:46 32° S
SPOT 5 2.9 22:28:34 66° NNE 22:28:34 66° NNE 22:32:29 10° N
Lacrosse 5 3.8 22:25:17 10° NNW 22:29:07 21° NNE 22:30:32 19° NE
Cosmos 1934 Rocket 4.2 22:33:03 49° ENE 22:33:03 49° ENE 22:38:17 10° NNE
ATLAS 2AS CENTAUR R/B 4.4 22:29:52 10° NW 22:36:05 27° WSW 22:39:43 18° SSW
Cosmos 1954 Rocket 4.0 22:31:54 10° NNW 22:36:48 77° N 22:36:48 77° N
GEOS 3 Rocket 3.8 22:35:32 10° NNE 22:40:53 70° NW 22:43:44 28° SW
SL-16 R/B 3.0 22:43:11 16° SW 22:47:32 49° WNW 22:53:03 10° NNE
CZ-2C R/B 4.3 22:49:11 29° NE 22:49:11 29° NE 22:52:06 10° N
Cosmos 2344 3.5 22:44:01 10° SSW 22:51:39 89° WNW 22:59:59 10° NE
SL-19 R/B 4.2 22:53:15 78° W 22:53:15 78° W 22:58:41 10° NNW
Cosmos 1000 Rocket 4.5 22:47:33 10° N 22:53:45 74° W 22:54:14 70° SW
Cosmos 1943 Rocket 3.6 22:50:30 10° N 22:54:37 26° NE 22:54:37 26° NE
Cosmos 1821 Rocket 4.1 22:57:37 64° SW 22:58:25 72° W 23:04:44 10° N
NOSS 3-4 (A) 4.2 23:00:16 10° NW 23:07:08 51° WSW 23:07:53 50° SW
NOSS 3-4 (C) 4.2 23:00:21 10° NW 23:07:14 52° WSW 23:07:59 50° SW
SPOT 1/Viking Rocket 4.4 23:09:39 45° W 23:09:39 45° W 23:14:11 10° NNW
USA 267 3.3 23:06:05 10° NE 23:12:36 75° NW 23:19:07 10° WSW
Cosmos 1603 4.5 23:16:16 45° NNE 23:16:16 45° NNE 23:20:04 10° NNE
Cosmos 2123 Rocket 4.0 23:10:02 10° N 23:15:50 76° NNW 23:15:50 76° NNW
H-2A R/B 4.0 23:17:10 20° W 23:17:36 20° W 23:21:14 10° NW
Cosmos 2369 Rocket 2.9 23:21:02 10° NNW 23:25:18 48° N 23:25:18 48° N
CZ-2C R/B 3.8 23:36:24 10° NNE 23:39:33 37° NNE 23:39:33 37° NNE
CZ-4C R/B 3.2 23:44:41 44° NNW 23:44:41 44° NNW 23:49:28 10° NNE
USA 234 3.5 23:45:38 60° NNE 23:45:38 60° NNE 23:51:57 10° NW
Terra 3.8 23:48:17 25° NW 23:48:17 25° NW 23:50:44 10° NNW
